STARLINK-34343, 64157

Orbit data source: Space-Track

STARLINK-34343, 64157 is a payload satellite owned by SpaceX/Seattle (US) in SSO that was launched on Tue, 27 May 2025 UTC via an FALCON 9 launch vehicle from the Air Force Western Test Range (AFWTR).

On March 29, 2026, Starlink satellite 34343 (NORAD 64157) experienced an on-orbit anomaly and a fragmentation event, resulting in a loss of communication at ~560 km altitude. LeoLabs detected tens of objects near the satellite. SpaceX states there is no risk to the International Space Station or NASA's Artemis II mission.

Loading next visibility...
Identifier
64157, 2025-112M
Orbit
SSO
Country
Flag of USUS
Related business
Manufacturer
SpaceX/Seattle
Mission
Partially operational Commercial Communications
Bus & Motor
STARLINK V2MO, Unknown motor
Mass
575 kg wet, ~530 kg dry
Launch date (UTC)
2025-05-27 (1 year ago)
Launch vehicle
FALCON 9
Launch site
Air Force Western Test Range (AFWTR)
Object type
Payload
Rocket body
Debris
Shape & HBR
Box + 1 Pan, 17.7 m
Radar Cross Section
41.120 m², Large (>1 m²)

Expand to show TLE details & history
Last TLE update: 1 day ago

TLE from 1 day ago
0 STARLINK-34343
1 64157U 25112M   26235.86895183  .00022790  00000-0  15196-2 0  9994
2 64157  97.6073 286.1694 0016167  51.8354 308.4327 15.06961898 68442
Epoch: 2026-08-23T20:51Z
TLE epoch observation values (Epoch: 2026-08-23T20:51:17.438Z)
Latitude
-0.00002°
Longitude
1.18792°
Altitude
541.609 km
Speed
7.595 km/s
True Right ascension
19h 04m 40s
True Declination
0° 00' 00"
Sunlit
Object was in full shadow at epoch
Visualization orbit readout
Latitude
Unknown
Longitude
Unknown
Altitude
Unknown
Speed
Unknown
Apparent Right ascension
Unknown
Apparent Declination
Unknown
Sunlit
N/A
Visualization observer readout
Local Sidereal Time
17:07:31
Azimuth
Unknown
Elevation
Unknown
Doppler factor
Unknown
Orbital elements
Apogee altitude
553.67 km
Perigee altitude
531.293 km
Semi-major axis
6,920.619 km
Eccentricity
0.00162
Inclination
97.6073°
RAAN
286.1694°
Arg. of periapsis
51.8354°
True anomaly
308.2874°
Mean anomaly
308.4327°
Eccentric anomaly
308.36007°
Mean motion
3.76986 °/min
Orbital period
95.49 mins
BSTAR
0.0015196
Loading maneuver chart data...
Computing Atmospheric mass density...
Loading historical data...
Loading historical data...
Loading historical data...
Loading historical data...
Loading historical data...
Loading historical data...
Loading historical data...

Documentation

Showing up to 5 results
|